BM3FFG-1 Weather Reports


time (UTC)temp
C
wind
direction
speed
KPH
gust
KPH
rain 1hr
cm
rain 24hr
cm
rain mn
cm
humidity
%
barometer
mb
20260509074944 29 0.0 0.0 0.00 0.00 0.00 61 964.5
20260509072943 30 0.0 0.0 0.00 0.00 0.00 61 964.6
20260509070943 30 0.0 0.0 0.00 0.00 0.00 61 964.6
20260509064943 30 0.0 0.0 0.00 0.00 0.00 61 964.7
20260509062943 30 0.0 0.0 0.00 0.00 0.00 62 964.8
20260509060943 29 0.0 0.0 0.00 0.00 0.00 62 964.8
20260509054943 29 0.0 0.0 0.00 0.00 0.00 61 965.0
20260509052943 29 0.0 0.0 0.00 0.00 0.00 60 965.0
20260509050943 29 0.0 0.0 0.00 0.00 0.00 59 965.1
20260509044943 29 0.0 0.0 0.00 0.00 0.00 60 965.2
20260509042943 29 0.0 0.0 0.00 0.00 0.00 62 965.3
20260509040943 29 0.0 0.0 0.00 0.00 0.00 63 965.6
20260509034943 29 0.0 0.0 0.00 0.00 0.00 63 965.7
20260509032943 30 0.0 0.0 0.00 0.00 0.00 62 965.8
20260509030943 29 0.0 0.0 0.00 0.00 0.00 63 966.0
20260509024943 28 0.0 0.0 0.00 0.00 0.00 64 966.3
20260509022943 28 0.0 0.0 0.00 0.00 0.00 65 966.5
20260509020943 28 0.0 0.0 0.00 0.00 0.00 68 966.7
20260509014943 28 0.0 0.0 0.00 0.00 0.00 72 966.9
20260509012943 27 0.0 0.0 0.00 0.00 0.00 74 967.2
20260509010942 27 0.0 0.0 0.00 0.00 0.00 74 967.2
20260509004943 27 0.0 0.0 0.00 0.00 0.00 75 967.2
20260509002943 27 0.0 0.0 0.00 0.00 0.00 76 967.0
20260509000943 27 0.0 0.0 0.00 0.00 0.00 76 966.9
20260508234943 26 0.0 0.0 0.00 0.00 0.00 76 966.9
20260508232942 26 0.0 0.0 0.00 0.00 0.00 77 966.8
20260508230943 26 0.0 0.0 0.00 0.00 0.00 77 966.6
20260508224942 26 0.0 0.0 0.00 0.00 0.00 77 966.5
20260508222943 26 0.0 0.0 0.00 0.00 0.00 77 966.4
20260508220942 26 0.0 0.0 0.00 0.00 0.00 76 966.2
20260508214943 26 0.0 0.0 0.00 0.00 0.00 76 966.1
20260508212943 26 0.0 0.0 0.00 0.00 0.00 75 965.8
20260508210943 27 0.0 0.0 0.00 0.00 0.00 75 965.6
20260508204942 27 0.0 0.0 0.00 0.00 0.00 75 965.4
20260508202943 27 0.0 0.0 0.00 0.00 0.00 75 965.2
20260508200943 27 0.0 0.0 0.00 0.00 0.00 74 965.1
20260508194942 27 0.0 0.0 0.00 0.00 0.00 74 965.1
20260508192943 27 0.0 0.0 0.00 0.00 0.00 74 965.2
20260508190943 27 0.0 0.0 0.00 0.00 0.00 74 965.2
20260508184943 27 0.0 0.0 0.00 0.00 0.00 74 965.1
20260508182943 27 0.0 0.0 0.00 0.00 0.00 74 965.5
20260508180943 27 0.0 0.0 0.00 0.00 0.00 73 965.4
20260508174943 27 0.0 0.0 0.00 0.00 0.00 73 965.4
20260508172943 27 0.0 0.0 0.00 0.00 0.00 73 965.5
20260508170943 27 0.0 0.0 0.00 0.00 0.00 73 965.6
20260508164943 27 0.0 0.0 0.00 0.00 0.00 72 965.5
20260508162943 27 0.0 0.0 0.00 0.00 0.00 72 965.8
20260508160942 27 0.0 0.0 0.00 0.00 0.00 72 965.8
20260508154943 27 0.0 0.0 0.00 0.00 0.00 71 966.0
20260508152944 27 0.0 0.0 0.00 0.00 0.00 71 966.2
20260508150943 27 0.0 0.0 0.00 0.00 0.00 71 966.3
20260508144943 28 0.0 0.0 0.00 0.00 0.00 70 966.4
20260508142942 28 0.0 0.0 0.00 0.00 0.00 70 966.3
20260508140943 28 0.0 0.0 0.00 0.00 0.00 69 966.3
20260508134943 28 0.0 0.0 0.00 0.00 0.00 68 966.1
20260508132943 28 0.0 0.0 0.00 0.00 0.00 68 966.0
20260508130943 28 0.0 0.0 0.00 0.00 0.00 67 965.8
20260508124943 28 0.0 0.0 0.00 0.00 0.00 66 965.6
20260508122943 28 0.0 0.0 0.00 0.00 0.00 66 965.4
20260508120942 28 0.0 0.0 0.00 0.00 0.00 64 965.2
20260508114943 28 0.0 0.0 0.00 0.00 0.00 64 965.0
20260508112942 28 0.0 0.0 0.00 0.00 0.00 63 964.8
20260508110942 28 0.0 0.0 0.00 0.00 0.00 63 964.8
20260508104943 28 0.0 0.0 0.00 0.00 0.00 63 964.6
20260508102943 28 0.0 0.0 0.00 0.00 0.00 63 964.3
20260508100943 29 0.0 0.0 0.00 0.00 0.00 64 964.1
20260508094943 29 0.0 0.0 0.00 0.00 0.00 64 963.8
20260508092943 29 0.0 0.0 0.00 0.00 0.00 63 963.6
20260508090943 30 0.0 0.0 0.00 0.00 0.00 63 963.6
20260508084943 30 0.0 0.0 0.00 0.00 0.00 62 963.2
20260508082943 30 0.0 0.0 0.00 0.00 0.00 60 963.2
20260508080943 30 0.0 0.0 0.00 0.00 0.00 58 963.2